When you browse on this site, cookies collect data to enhance your experience and personalize the content and advertising you see.
Visit our Privacy Policy to learn more. By continuing to use the site, you agree to this use of cookies and data.
  • en Belgique
  • Liste des pays
  • À 7 jours
  • Température de l'eau
  • Carte satellitaire
  • Carte météo
  • Widgets météo
  • user-avatar
    Se connecter

    Météo par heure à Zadore

    Ce jour, 27 Mai, Lundi

    Heure Température Précipitation Vent Pression Humidité
    00:00 +9°C° 0 mm 3 m/s 733 mmHg 86%
    01:00 +9°C° 0 mm 3 m/s 734 mmHg 87%
    02:00 +9°C° 0 mm 3 m/s 734 mmHg 88%
    03:00 +9°C° 0 mm 3 m/s 734 mmHg 87%
    04:00 +8°C° 0 mm 4 m/s 734 mmHg 86%
    05:00 +8°C° 0 mm 4 m/s 734 mmHg 85%
    06:00 +10°C° 0 mm 4 m/s 734 mmHg 83%
    07:00 +10°C° 0 mm 4 m/s 734 mmHg 82%
    08:00 +11°C° 0 mm 4 m/s 735 mmHg 80%
    09:00 +11°C° 0.1 mm 4 m/s 735 mmHg 81%
    10:00 +12°C° 0.1 mm 4 m/s 735 mmHg 82%
    11:00 +12°C° 0.1 mm 4 m/s 735 mmHg 83%
    12:00 +13°C° 0.1 mm 4 m/s 735 mmHg 81%
    13:00 +14°C° 0.1 mm 5 m/s 736 mmHg 78%
    14:00 +15°C° 0.1 mm 5 m/s 736 mmHg 76%
    15:00 +15°C° 0 mm 5 m/s 736 mmHg 75%
    16:00 +17°C° 0 mm 4 m/s 736 mmHg 73%
    17:00 +17°C° 0 mm 4 m/s 736 mmHg 72%
    18:00 +17°C° 0.2 mm 4 m/s 736 mmHg 78%
    19:00 +15°C° 0.2 mm 4 m/s 736 mmHg 85%
    20:00 +14°C° 0.2 mm 3 m/s 736 mmHg 91%
    21:00 +14°C° 0.2 mm 3 m/s 736 mmHg 93%
    22:00 +14°C° 0.2 mm 3 m/s 736 mmHg 94%
    23:00 +14°C° 0.2 mm 3 m/s 736 mmHg 95%

    Demain, 28 Mai, Mardi

    Heure Température Précipitation Vent Pression Humidité
    00:00 +13°C° 0 mm 3 m/s 737 mmHg 96%
    01:00 +13°C° 0 mm 3 m/s 737 mmHg 96%
    02:00 +13°C° 0 mm 3 m/s 737 mmHg 97%
    03:00 +13°C° 0 mm 3 m/s 738 mmHg 96%
    04:00 +14°C° 0 mm 2 m/s 738 mmHg 96%
    05:00 +14°C° 0 mm 2 m/s 738 mmHg 96%
    06:00 +16°C° 0 mm 2 m/s 739 mmHg 90%
    07:00 +17°C° 0 mm 2 m/s 739 mmHg 85%
    08:00 +19°C° 0 mm 2 m/s 739 mmHg 80%
    09:00 +20°C° 0 mm 3 m/s 739 mmHg 71%
    10:00 +22°C° 0 mm 3 m/s 740 mmHg 63%
    11:00 +25°C° 0 mm 4 m/s 740 mmHg 55%
    12:00 +25°C° 0 mm 4 m/s 740 mmHg 54%
    13:00 +26°C° 0 mm 4 m/s 740 mmHg 53%
    14:00 +26°C° 0 mm 4 m/s 739 mmHg 52%
    15:00 +25°C° 0.6 mm 3 m/s 739 mmHg 62%
    16:00 +24°C° 0.6 mm 3 m/s 739 mmHg 72%
    17:00 +22°C° 0.6 mm 3 m/s 739 mmHg 82%
    18:00 +21°C° 0.1 mm 3 m/s 739 mmHg 85%
    19:00 +20°C° 0.1 mm 3 m/s 739 mmHg 88%
    20:00 +19°C° 0.1 mm 3 m/s 738 mmHg 91%
    21:00 +18°C° 0 mm 3 m/s 739 mmHg 90%
    22:00 +18°C° 0 mm 3 m/s 739 mmHg 89%
    23:00 +17°C° 0 mm 4 m/s 739 mmHg 89%

    Après-demain, 29 Mai, Mercredi

    Heure Température Précipitation Vent Pression Humidité
    00:00 +17°C° 0 mm 4 m/s 739 mmHg 89%
    01:00 +17°C° 0 mm 4 m/s 739 mmHg 89%
    02:00 +17°C° 0 mm 4 m/s 739 mmHg 89%
    03:00 +18°C° 0 mm 4 m/s 739 mmHg 88%
    04:00 +18°C° 0 mm 4 m/s 739 mmHg 87%
    05:00 +18°C° 0 mm 4 m/s 739 mmHg 86%
    06:00 +20°C° 0 mm 5 m/s 740 mmHg 79%
    07:00 +21°C° 0 mm 5 m/s 740 mmHg 72%
    08:00 +23°C° 0 mm 5 m/s 740 mmHg 65%
    09:00 +24°C° 0 mm 6 m/s 740 mmHg 60%
    10:00 +26°C° 0 mm 6 m/s 740 mmHg 55%
    11:00 +27°C° 0 mm 6 m/s 740 mmHg 50%
    12:00 +27°C° 0 mm 6 m/s 740 mmHg 48%
    13:00 +28°C° 0 mm 6 m/s 740 mmHg 46%
    14:00 +28°C° 0 mm 6 m/s 739 mmHg 44%
    15:00 +27°C° 0 mm 5 m/s 739 mmHg 48%
    16:00 +26°C° 0 mm 4 m/s 739 mmHg 52%
    17:00 +25°C° 0 mm 3 m/s 739 mmHg 57%
    18:00 +24°C° 0 mm 3 m/s 739 mmHg 63%
    19:00 +21°C° 0 mm 3 m/s 740 mmHg 69%
    20:00 +20°C° 0 mm 3 m/s 740 mmHg 75%
    21:00 +19°C° 1 mm 3 m/s 740 mmHg 81%
    22:00 +19°C° 1 mm 3 m/s 740 mmHg 88%
    23:00 +18°C° 1 mm 2 m/s 741 mmHg 95%

    30 Mai, Jeudi

    Heure Température Précipitation Vent Pression Humidité
    00:00 +18°C° 0 mm 2 m/s 741 mmHg 95%
    01:00 +17°C° 0 mm 3 m/s 741 mmHg 96%
    02:00 +17°C° 0 mm 3 m/s 741 mmHg 97%
    03:00 +17°C° 0.2 mm 3 m/s 741 mmHg 96%
    04:00 +18°C° 0.2 mm 3 m/s 741 mmHg 96%
    05:00 +18°C° 0.2 mm 3 m/s 741 mmHg 96%
    06:00 +19°C° 1.1 mm 3 m/s 742 mmHg 93%
    07:00 +20°C° 1.1 mm 3 m/s 742 mmHg 90%
    08:00 +21°C° 1.1 mm 3 m/s 742 mmHg 87%
    09:00 +21°C° 0.8 mm 3 m/s 742 mmHg 86%
    10:00 +22°C° 0.8 mm 3 m/s 742 mmHg 84%
    11:00 +22°C° 0.8 mm 3 m/s 742 mmHg 83%
    12:00 +22°C° 1 mm 3 m/s 742 mmHg 84%
    13:00 +23°C° 1 mm 2 m/s 742 mmHg 84%
    14:00 +23°C° 1 mm 2 m/s 742 mmHg 85%
    15:00 +21°C° 0.8 mm 2 m/s 742 mmHg 87%
    16:00 +22°C° 0.8 mm 1 m/s 742 mmHg 89%
    17:00 +21°C° 0.8 mm 1 m/s 742 mmHg 91%
    18:00 +21°C° 0.3 mm 1 m/s 742 mmHg 93%
    19:00 +20°C° 0.3 mm 1 m/s 742 mmHg 95%
    20:00 +19°C° 0.3 mm 1 m/s 743 mmHg 97%
    21:00 +18°C° 0 mm 1 m/s 743 mmHg 98%
    22:00 +16°C° 0 mm 1 m/s 743 mmHg 98%
    23:00 +16°C° 0 mm 1 m/s 743 mmHg 98%

    31 Mai, Vendredi

    Heure Température Précipitation Vent Pression Humidité
    00:00 +15°C° 0 mm 1 m/s 743 mmHg 98%
    01:00 +15°C° 0 mm 1 m/s 743 mmHg 98%
    02:00 +14°C° 0 mm 1 m/s 743 mmHg 98%
    03:00 +14°C° 0 mm 1 m/s 743 mmHg 97%
    04:00 +15°C° 0 mm 1 m/s 743 mmHg 95%
    05:00 +15°C° 0 mm 1 m/s 743 mmHg 94%
    06:00 +16°C° 0 mm 1 m/s 743 mmHg 89%
    07:00 +19°C° 0 mm 1 m/s 743 mmHg 83%
    08:00 +21°C° 0 mm 1 m/s 743 mmHg 77%
    09:00 +23°C° 0 mm 1 m/s 743 mmHg 71%
    10:00 +25°C° 0 mm 1 m/s 743 mmHg 65%
    11:00 +25°C° 0 mm 0 m/s 743 mmHg 59%
    12:00 +25°C° 0 mm 0 m/s 743 mmHg 59%
    13:00 +25°C° 0 mm 0 m/s 743 mmHg 60%
    14:00 +24°C° 0 mm 0 m/s 742 mmHg 60%
    15:00 +26°C° 0.3 mm 1 m/s 742 mmHg 64%
    16:00 +26°C° 0.3 mm 1 m/s 742 mmHg 68%
    17:00 +25°C° 0.3 mm 1 m/s 742 mmHg 72%
    18:00 +24°C° 0 mm 1 m/s 742 mmHg 78%
    19:00 +22°C° 0 mm 1 m/s 742 mmHg 84%
    20:00 +21°C° 0 mm 1 m/s 742 mmHg 90%
    21:00 +20°C° 0 mm 1 m/s 741 mmHg 92%
    22:00 +20°C° 0 mm 1 m/s 741 mmHg 94%
    23:00 +19°C° 0 mm 1 m/s 741 mmHg 96%

    1 Juin, Samedi

    Heure Température Précipitation Vent Pression Humidité
    00:00 +19°C° 0.7 mm 1 m/s 741 mmHg 96%
    01:00 +19°C° 0.7 mm 1 m/s 741 mmHg 97%
    02:00 +18°C° 0.7 mm 2 m/s 741 mmHg 97%
    03:00 +19°C° 0.1 mm 1 m/s 741 mmHg 97%
    04:00 +19°C° 0.1 mm 1 m/s 741 mmHg 96%
    05:00 +19°C° 0.1 mm 1 m/s 741 mmHg 96%
    06:00 +21°C° 0.1 mm 1 m/s 741 mmHg 91%
    07:00 +21°C° 0.1 mm 2 m/s 741 mmHg 86%
    08:00 +23°C° 0.1 mm 2 m/s 741 mmHg 81%
    09:00 +24°C° 0.4 mm 2 m/s 741 mmHg 77%
    10:00 +25°C° 0.4 mm 2 m/s 741 mmHg 73%
    11:00 +26°C° 0.4 mm 3 m/s 741 mmHg 69%
    12:00 +26°C° 0.7 mm 3 m/s 741 mmHg 68%
    13:00 +27°C° 0.7 mm 3 m/s 740 mmHg 67%
    14:00 +27°C° 0.7 mm 3 m/s 740 mmHg 66%
    15:00 +26°C° 1.5 mm 2 m/s 740 mmHg 72%
    16:00 +25°C° 1.5 mm 2 m/s 740 mmHg 79%
    17:00 +24°C° 1.5 mm 2 m/s 740 mmHg 85%
    18:00 +22°C° 1.7 mm 1 m/s 740 mmHg 88%
    19:00 +21°C° 1.7 mm 1 m/s 741 mmHg 91%
    20:00 +19°C° 1.7 mm 1 m/s 741 mmHg 94%
    21:00 +17°C° 0.2 mm 2 m/s 741 mmHg 95%
    22:00 +16°C° 0.2 mm 3 m/s 742 mmHg 95%
    23:00 +14°C° 0.2 mm 4 m/s 742 mmHg 96%
    Voir plus